GFSGBSN_sfc_thetae_000.txt.gz
Theta_e
325 323 321 321 320 320 319 319 319 319 319 319 318 317 317 317 317 318 319 320 321 322 323 324 324 325 321 309 309 315 323 322 316 313 310 308 306 306 303 304 304 301 302 304 304 302 301
327 325 324 323 322 321 320 320 320 320 320 320 319 318 317 316 317 318 318 319 320 321 322 322 323 323 313 301 313 315 311 312 312 310 308 308 306 307 304 302 301 302 302 302 302 302 302
327 327 325 325 323 323 321 321 321 320 320 320 319 318 317 316 317 317 317 318 319 320 321 322 323 321 310 305 313 312 311 310 310 309 307 309 308 306 306 302 303 301 296 299 300 301 299
327 327 326 326 325 324 322 322 321 321 319 318 318 317 316 317 317 317 317 318 319 320 321 321 323 318 305 314 312 310 310 308 309 309 309 309 308 306 304 304 301 295 296 291 298 300 299
326 326 326 326 326 325 324 323 322 321 320 318 317 316 316 316 316 317 317 318 318 320 321 321 317 313 303 314 310 310 309 307 307 308 307 307 308 303 302 295 293 295 290 292 296 301 297
326 326 325 325 325 325 324 323 322 321 320 319 317 316 315 316 316 316 317 318 320 317 319 320 314 306 306 305 309 309 307 308 306 306 305 304 302 297 296 294 287 290 290 293 292 296 296
326 326 325 325 324 324 324 323 322 322 321 319 317 316 316 316 317 318 315 313 307 309 309 304 305 304 305 308 310 306 306 305 305 302 296 300 294 291 294 297 297 296 293 292 296 298 294
326 325 325 324 324 323 323 322 322 323 322 319 317 317 317 317 317 318 313 306 306 305 296 303 304 305 306 308 303 305 305 299 299 294 297 295 292 297 298 297 294 293 291 291 295 297 293
325 325 325 324 323 323 322 322 322 322 321 319 318 317 316 317 317 314 310 307 311 310 298 299 302 301 302 304 300 301 301 300 297 295 295 293 295 299 297 294 293 292 290 290 291 294 292
326 325 324 324 323 322 321 321 320 320 319 319 318 317 316 316 311 311 307 309 311 310 291 294 297 301 302 302 295 300 302 300 297 294 295 294 298 297 294 293 294 289 294 293 292 288 284
325 324 323 323 322 321 320 320 319 319 318 317 317 317 317 315 309 307 307 309 310 305 281 297 295 304 302 297 296 295 297 296 293 293 293 292 292 291 291 293 295 291 291 290 289 287 286
320 320 320 321 321 321 320 320 320 319 318 317 317 316 315 313 312 311 311 309 307 289 280 293 296 295 295 296 295 295 295 296 295 292 292 292 294 293 293 292 292 292 289 288 286 285 280
318 318 317 317 318 317 318 320 320 320 318 317 317 316 314 315 308 311 309 305 289 282 295 293 293 295 294 293 294 292 290 288 287 284 285 290 291 291 293 290 290 289 286 279 278 277 280
315 315 314 314 315 316 316 317 317 319 319 318 317 316 314 314 311 310 305 296 283 294 292 296 294 294 291 294 293 292 290 287 290 289 287 285 285 290 292 291 290 287 288 281 274 278 282
311 311 311 312 312 312 313 314 315 315 315 317 317 315 312 313 310 309 298 285 290 297 300 298 297 290 290 292 292 292 289 290 292 292 287 286 286 289 291 291 293 288 284 290 282 277 278
307 307 308 309 309 310 310 311 312 313 314 314 313 311 309 314 310 304 291 288 292 303 302 299 291 293 289 291 289 289 290 292 292 294 295 290 286 290 287 288 288 287 289 282 283 273 272
304 304 304 305 306 306 308 309 309 310 311 313 311 304 310 311 308 298 286 288 296 302 303 298 296 292 291 290 292 290 290 293 293 293 295 290 289 286 286 284 285 283 283 285 286 284 277
302 302 302 302 302 303 304 306 306 308 310 313 308 297 306 309 294 294 290 294 298 298 302 298 294 293 291 291 289 290 290 294 296 294 290 293 290 284 286 290 287 288 287 288 283 281 280
300 300 300 301 301 301 301 302 304 305 308 304 302 302 305 306 292 291 294 295 297 297 297 297 297 296 297 293 288 290 291 295 296 294 289 292 286 281 282 288 286 284 287 288 288 286 283
300 299 299 300 299 299 300 300 302 302 304 303 300 293 296 298 298 295 293 292 292 298 297 298 297 298 294 291 294 291 291 295 297 295 296 295 287 285 281 284 288 284 285 285 286 282 283
299 300 300 301 300 299 299 299 299 300 302 301 297 294 296 289 291 293 295 293 291 291 297 299 295 295 293 289 290 290 292 293 294 296 294 293 284 285 287 289 288 286 286 287 285 285 282
299 298 298 299 300 300 299 299 298 299 301 296 291 293 294 293 295 293 292 290 290 293 294 293 293 294 294 291 292 290 291 293 292 292 292 293 285 285 283 286 286 284 286 287 287 287 287
298 298 298 299 299 298 299 299 299 299 300 294 297 296 291 288 289 289 289 290 290 293 294 295 295 294 292 294 297 298 298 298 296 293 289 287 285 283 280 285 284 280 285 287 288 290 288
298 298 298 298 299 298 299 299 299 299 299 296 295 291 287 280 284 285 288 289 287 288 287 289 290 289 295 298 296 295 295 294 295 294 296 289 286 286 282 284 275 285 291 290 288 290 292
299 298 298 298 298 298 297 298 298 299 299 295 296 290 286 279 283 283 284 284 285 286 286 287 289 293 295 292 287 285 286 287 289 292 292 294 289 284 280 280 284 286 289 288 286 287 292
299 299 299 299 298 298 298 298 298 299 299 296 294 295 289 282 279 284 281 283 280 279 281 285 291 289 291 288 285 280 278 282 283 284 290 291 291 286 284 279 277 286 291 294 293 282 293
298 298 298 298 298 298 298 298 298 298 298 296 293 296 289 282 284 284 279 279 283 282 280 282 278 280 287 282 280 279 279 286 280 281 283 283 284 282 283 281 283 290 292 291 280 284 294
298 298 297 297 297 298 298 298 298 298 298 295 292 295 289 285 284 286 286 281 281 281 278 279 277 279 280 276 276 277 279 280 279 282 283 282 280 280 282 279 277 289 289 285 288 292 291
297 297 297 297 297 297 297 298 297 297 297 297 289 294 295 286 285 290 289 290 288 287 282 278 277 272 279 276 276 278 273 276 275 272 282 276 277 274 277 278 287 289 285 286 291 286 287

GFSGBSN_sfc_thetae_003.txt.gz
Theta_e
325 323 322 321 321 320 320 320 320 320 320 320 319 318 317 317 318 318 319 320 320 320 321 322 323 323 316 303 304 314 323 322 314 311 306 304 302 301 297 299 299 297 298 301 301 300 299
325 326 324 323 322 321 321 321 321 320 320 320 319 318 317 317 317 318 318 319 319 319 320 321 322 322 305 296 309 312 310 311 309 306 304 304 302 303 299 298 296 297 299 298 299 300 299
327 327 327 325 324 323 323 321 321 321 320 319 318 317 317 317 317 317 317 318 318 319 319 320 322 320 306 300 309 308 308 306 305 305 303 304 304 301 300 298 300 298 295 295 298 298 297
327 327 326 326 325 324 323 322 322 322 321 319 318 317 317 317 317 317 317 318 319 319 319 321 322 313 298 310 305 307 306 304 305 305 306 305 304 303 300 300 297 292 291 288 294 296 297
327 326 326 326 325 325 324 323 323 322 321 319 318 317 316 317 317 317 318 318 318 319 320 320 311 306 298 313 305 307 306 304 304 304 303 306 304 299 298 291 289 289 285 287 292 297 295
327 326 325 325 325 324 324 323 323 322 321 319 318 317 317 317 317 317 318 318 317 317 316 319 314 300 302 301 307 306 303 306 303 303 302 300 297 292 292 289 284 285 286 289 289 292 292
327 326 325 325 324 324 323 323 322 322 321 320 319 317 317 318 318 318 314 306 298 299 305 297 298 299 302 305 307 303 304 303 302 299 293 297 290 288 292 292 292 289 288 287 292 295 293
327 326 326 325 324 324 323 322 322 323 322 321 319 318 318 318 318 318 310 302 302 301 293 300 299 302 304 305 299 302 303 298 297 292 294 292 289 294 294 294 292 290 288 288 292 293 292
327 326 326 325 325 324 323 322 322 322 321 320 319 318 317 317 317 311 305 302 307 305 294 296 298 297 298 303 298 298 300 297 294 291 292 291 293 297 295 293 291 291 288 289 289 291 290
326 326 325 324 324 323 322 321 321 320 319 319 319 318 317 316 309 306 301 305 307 304 285 291 294 298 300 299 293 297 299 297 294 292 292 291 296 294 291 290 292 288 292 292 289 286 284
321 321 321 321 322 321 321 320 320 319 318 317 317 317 316 315 304 303 305 306 305 299 277 293 293 302 299 293 293 293 295 293 290 290 290 290 289 289 290 292 292 290 291 289 287 285 283
319 318 318 318 318 318 318 319 320 319 318 318 317 317 316 311 306 306 307 305 301 284 276 290 294 292 292 293 292 293 292 293 292 289 289 289 290 291 291 290 291 291 287 286 284 283 280
316 315 315 315 315 316 317 317 317 318 319 318 317 316 314 313 306 307 307 304 287 280 290 290 289 292 290 290 291 289 287 285 284 282 282 286 288 289 292 288 288 288 285 278 276 274 279
313 313 312 312 313 313 313 314 314 315 316 317 317 316 314 314 309 310 307 295 283 291 289 294 292 290 288 291 291 289 286 284 287 286 284 283 283 288 290 291 287 285 286 279 273 276 282
310 310 310 310 310 310 310 311 311 313 314 314 316 314 312 313 310 308 299 286 289 291 299 298 299 294 287 289 289 288 285 285 288 290 285 283 284 288 289 289 291 285 283 289 281 271 275
306 306 306 306 307 307 308 309 310 311 311 312 312 310 309 312 310 304 293 292 291 297 301 299 293 295 291 292 290 289 286 289 290 291 294 289 284 289 286 287 287 287 288 281 281 274 272
304 303 303 303 303 304 304 306 307 308 310 311 310 303 307 310 309 298 289 291 295 299 299 297 295 295 294 293 294 292 290 293 291 291 293 290 288 286 285 284 285 284 284 285 285 282 280
300 301 301 302 301 301 301 303 304 305 308 311 305 296 307 309 295 295 293 293 298 297 299 298 297 296 294 295 294 293 292 294 298 295 291 291 288 282 283 287 287 287 286 286 282 280 280
300 300 300 300 300 300 300 300 302 303 306 302 300 298 306 306 291 292 294 296 297 296 296 297 295 297 297 293 289 292 293 298 300 296 292 292 285 280 282 286 285 285 285 287 287 283 281
300 300 300 301 301 300 299 299 299 300 303 300 297 291 296 298 299 295 293 293 293 298 296 297 295 297 294 292 295 292 293 296 298 297 298 297 287 284 282 285 287 283 283 285 286 281 283
300 300 300 299 300 301 299 299 299 299 300 299 292 288 293 288 291 293 294 292 291 291 296 297 294 294 292 289 290 290 294 294 296 296 294 293 285 286 287 289 288 287 286 287 285 286 282
300 299 300 299 299 299 300 299 299 299 299 293 287 287 290 291 293 292 291 289 289 291 291 290 290 292 293 290 291 289 291 292 291 291 292 293 286 288 285 288 287 285 288 288 288 288 287
299 299 299 299 299 299 299 299 299 298 298 289 291 291 290 285 284 285 286 288 289 291 293 293 289 287 287 290 290 291 291 292 292 291 290 289 286 285 282 287 286 282 286 288 288 289 288
299 298 299 299 299 299 299 299 298 299 298 292 290 291 287 279 282 282 285 285 285 287 286 288 287 285 289 293 292 290 289 290 291 292 293 287 285 285 282 284 276 285 290 290 288 290 291
301 300 300 299 299 299 298 298 298 298 299 293 292 290 285 277 281 281 282 282 282 283 282 284 285 289 289 287 282 280 279 282 285 289 290 292 288 283 280 280 283 286 286 287 286 286 291
300 300 300 300 299 299 299 299 299 299 299 292 290 293 288 280 276 283 280 281 274 274 275 280 285 284 286 280 273 269 271 276 279 281 286 289 290 285 282 277 274 285 289 292 292 282 284
299 299 300 299 299 299 299 299 299 299 299 293 289 292 288 281 282 282 278 278 281 279 272 272 274 276 281 273 269 270 270 277 272 273 276 280 282 280 281 279 280 284 286 290 280 276 284
297 298 299 299 299 299 298 298 299 299 299 294 289 293 289 283 283 284 285 279 280 277 269 271 273 272 272 269 266 273 269 274 271 274 273 274 273 273 277 276 274 285 284 275 278 284 283
297 297 298 298 298 298 298 298 298 298 298 297 286 292 293 286 283 288 288 289 287 285 278 273 274 268 274 268 265 265 265 268 269 266 277 271 275 271 273 273 278 283 280 282 286 282 281

GFSGBSN_sfc_thetae_006.txt.gz
Theta_e
326 324 323 322 321 321 321 321 321 320 320 320 320 318 317 318 318 319 319 319 320 320 320 321 322 323 313 300 302 314 326 325 315 310 305 303 301 299 296 297 297 296 297 299 300 299 297
326 325 325 323 323 322 322 322 321 321 320 320 319 318 318 317 317 318 318 318 319 320 320 320 321 320 303 292 306 312 310 311 308 305 303 303 301 301 298 297 296 295 297 297 298 298 298
326 326 326 326 325 324 323 322 322 321 321 320 319 318 318 318 317 317 318 318 318 319 319 320 321 318 305 298 307 308 308 306 305 304 302 302 302 301 297 296 299 296 294 294 296 296 295
327 326 326 326 325 324 323 323 323 322 321 320 319 318 317 318 318 318 319 319 319 319 319 320 321 312 296 308 304 305 305 303 303 303 303 303 303 300 298 298 295 291 290 287 293 294 295
327 327 326 326 325 324 324 323 323 323 321 320 319 318 318 318 318 318 319 319 318 318 319 321 310 303 296 311 303 305 304 302 302 303 302 306 302 296 296 291 287 286 284 285 290 295 294
328 327 326 325 325 324 324 323 323 322 321 320 319 318 318 318 318 318 318 319 316 315 317 318 313 298 301 300 305 303 301 304 301 301 299 299 296 291 291 288 283 284 283 286 287 291 291
327 327 326 326 325 324 323 323 322 322 321 320 319 319 318 318 318 319 314 305 298 296 302 295 297 297 299 304 305 302 303 302 301 297 291 294 289 287 292 291 292 286 285 285 289 293 290
327 327 326 326 325 325 324 323 323 323 322 320 319 319 319 318 318 318 307 302 300 300 293 299 299 300 302 303 298 301 303 297 296 291 292 290 287 293 294 291 291 290 288 288 291 293 289
326 326 326 326 325 325 324 323 323 323 322 320 319 318 318 317 317 309 302 300 305 304 292 295 297 296 297 302 297 297 300 296 292 290 291 290 291 295 292 290 289 289 287 288 288 289 288
326 325 325 325 324 323 323 322 322 321 320 319 319 318 317 316 309 304 300 304 305 302 283 289 293 295 298 298 292 296 297 295 292 290 290 289 294 293 290 289 291 288 291 290 288 284 283
320 320 319 319 319 319 319 320 320 320 319 318 318 318 317 315 305 303 305 306 304 296 278 291 292 301 298 292 291 292 293 293 288 289 289 288 289 289 288 291 291 290 289 288 285 283 282
318 317 317 316 316 317 317 317 317 318 319 318 317 317 316 311 306 307 307 303 299 285 279 288 292 291 290 292 291 291 291 292 291 288 288 289 289 290 290 290 290 289 287 286 283 282 279
315 314 314 314 314 314 315 315 315 316 316 317 318 317 313 312 305 308 306 303 294 283 291 289 288 290 289 288 289 288 287 286 285 281 281 284 286 287 290 287 287 288 285 278 275 274 277
312 312 311 311 311 311 312 312 312 313 314 314 315 317 313 313 309 309 307 299 287 292 290 294 294 289 288 290 290 288 285 283 286 285 282 281 283 287 289 289 286 285 286 281 273 276 282
309 309 308 308 308 308 309 310 310 310 312 312 315 314 312 313 310 309 301 290 292 293 297 296 296 293 289 288 290 288 285 284 287 288 285 282 284 287 288 288 290 283 282 288 281 269 273
305 305 304 304 305 305 305 307 307 308 310 311 311 310 309 313 310 306 296 293 294 297 298 298 292 294 288 289 291 288 287 288 288 289 291 287 283 288 285 287 286 287 288 281 280 275 272
303 303 303 302 302 302 302 303 304 305 307 309 308 302 308 310 309 299 289 292 296 299 300 296 294 294 292 292 293 291 291 291 292 289 292 290 287 286 284 283 285 283 284 284 284 283 280
300 300 300 300 301 300 300 301 303 304 305 307 304 294 307 310 295 295 292 295 298 297 300 298 297 295 294 294 293 294 293 295 297 294 291 292 288 284 287 289 286 286 287 288 283 280 280
300 300 299 299 300 300 299 300 300 301 303 300 298 296 306 306 290 292 294 294 297 295 296 296 295 296 297 293 289 293 294 298 299 297 294 294 288 283 283 288 289 283 286 287 286 285 283
300 300 301 300 301 301 301 299 299 299 300 298 294 289 297 299 299 294 292 292 292 297 296 297 295 296 293 291 293 291 291 295 297 297 299 297 290 286 281 285 287 284 284 284 285 282 283
299 299 300 300 299 299 300 300 299 298 298 297 290 287 292 287 291 293 293 292 290 289 294 295 292 292 291 288 289 288 292 291 293 296 296 294 286 288 289 290 290 289 288 289 286 287 283
300 300 299 300 300 299 299 299 299 299 298 290 286 285 289 288 289 290 290 288 288 290 290 289 289 292 291 287 287 285 287 286 286 289 288 290 285 288 285 288 287 285 288 289 288 288 288
299 300 299 299 299 299 299 300 299 298 298 287 288 289 289 284 282 280 284 286 287 288 290 291 289 285 285 286 287 287 288 288 288 285 285 285 284 283 280 284 283 280 286 287 288 289 289
300 299 299 299 299 299 299 299 300 298 298 291 288 290 285 277 280 280 282 282 281 283 285 286 286 284 287 288 287 285 285 286 285 285 288 284 283 283 279 281 273 284 290 291 288 290 292
300 301 301 301 301 300 299 299 299 299 298 293 290 288 285 275 280 280 280 280 281 281 282 282 284 287 286 282 277 269 272 270 277 281 281 284 283 279 277 276 281 285 285 283 282 282 281
299 300 300 300 300 301 300 300 300 299 299 291 290 293 288 279 276 281 279 280 273 273 275 280 283 283 282 277 268 263 261 267 267 274 280 280 281 277 275 270 270 275 279 281 283 279 278
297 298 299 299 300 300 300 300 300 300 300 294 289 293 287 281 283 281 278 277 281 278 271 271 273 275 279 272 257 259 261 274 265 264 266 264 266 267 271 270 274 277 281 282 273 271 280
298 297 297 297 297 299 300 300 299 299 299 296 291 293 288 283 283 283 284 279 280 276 269 270 272 270 272 269 262 271 266 272 268 272 270 268 268 266 268 263 265 278 276 271 276 281 282
297 297 297 297 297 298 299 299 299 299 298 298 289 291 294 285 281 286 287 288 287 284 279 272 274 267 274 267 263 263 261 262 263 258 273 265 270 265 270 269 277 279 278 280 283 277 278

GFSGBSN_sfc_thetae_009.txt.gz
Theta_e
326 324 322 322 322 322 322 322 321 320 320 320 320 319 318 318 319 319 319 319 319 319 320 320 321 322 309 297 300 312 328 328 315 308 304 301 299 298 295 295 296 295 296 299 299 298 297
325 325 325 323 323 323 322 322 322 321 321 320 319 319 319 319 319 319 319 319 319 319 319 320 320 320 301 291 303 313 312 312 307 305 301 301 299 300 296 296 296 295 296 297 296 297 297
326 326 325 325 325 324 323 323 322 322 321 320 320 319 319 319 319 320 320 320 319 320 319 319 320 317 302 297 305 309 308 306 305 303 299 300 300 298 296 293 297 295 293 293 294 294 295
327 326 326 326 325 324 323 323 323 322 322 320 320 319 319 319 319 319 320 320 320 320 319 319 319 309 294 305 304 304 304 302 302 302 302 302 301 299 296 297 294 289 289 286 291 292 293
327 327 326 325 325 324 323 323 323 322 322 320 319 318 319 319 319 319 319 319 319 318 319 320 309 300 295 310 302 304 303 301 301 301 301 305 300 296 294 289 287 285 283 284 288 294 292
327 327 326 326 325 325 324 323 322 322 321 320 319 319 319 319 319 319 319 319 316 315 317 317 312 294 295 298 303 303 301 303 299 299 298 297 294 290 288 287 282 283 281 284 284 290 289
327 327 326 326 325 325 324 323 322 322 321 320 319 319 319 319 319 319 313 304 298 295 301 295 297 294 297 301 304 300 302 301 299 295 290 292 288 286 291 290 291 285 284 284 287 292 288
327 327 327 326 326 325 324 324 323 324 323 321 319 319 319 319 319 318 304 300 297 298 291 299 299 299 301 301 296 299 301 296 294 290 291 289 286 292 292 290 289 287 287 286 290 292 287
327 326 326 326 326 325 324 324 324 324 323 321 320 318 318 318 317 308 300 299 304 302 291 293 296 295 296 300 296 296 299 295 292 289 290 289 290 294 291 289 287 287 285 287 287 288 287
326 326 325 325 324 323 323 322 322 321 320 320 319 319 317 317 310 304 300 303 304 301 285 288 291 293 296 297 291 295 295 294 291 289 289 288 292 291 289 287 289 286 289 289 287 283 282
321 320 319 319 318 318 318 318 319 319 319 318 318 319 317 315 305 303 304 305 303 295 282 292 291 299 296 290 290 291 293 292 288 289 288 286 287 287 287 289 290 288 289 287 284 281 281
318 317 317 316 316 316 316 316 316 316 317 318 318 317 316 311 306 306 305 304 297 288 283 289 291 290 290 291 290 290 290 291 290 287 287 288 288 289 289 289 289 289 286 284 282 281 277
315 314 314 314 313 313 313 313 313 314 315 315 315 317 313 312 307 308 305 304 293 286 293 289 287 289 287 286 288 287 286 286 285 281 280 283 285 286 289 286 286 286 283 277 275 273 277
313 312 311 310 310 311 311 311 311 311 311 312 312 315 314 313 310 308 308 299 286 292 291 294 292 288 289 289 291 288 284 283 285 283 281 280 284 286 288 288 285 284 284 278 271 275 281
309 308 307 307 307 307 307 308 308 308 309 310 311 314 313 314 310 311 304 289 290 294 295 295 295 289 289 288 290 286 284 284 288 287 284 281 282 285 287 287 289 283 281 286 280 273 274
306 305 304 303 304 304 304 304 305 306 306 308 304 310 309 313 311 308 297 292 293 298 297 297 291 293 287 286 291 288 287 287 287 288 289 287 282 287 285 286 286 286 287 280 279 273 274
303 302 302 302 302 301 301 302 303 304 306 307 304 300 305 310 310 300 290 292 295 299 299 296 294 293 291 291 292 292 293 292 290 289 290 290 287 286 287 284 287 282 282 283 283 282 279
300 300 299 299 300 300 299 300 300 301 303 305 302 293 306 310 296 296 292 294 297 296 298 298 297 296 294 293 292 292 291 294 298 296 291 294 289 284 286 287 288 286 285 285 280 280 282
300 299 299 299 299 300 299 299 299 300 301 298 294 293 307 306 290 291 294 295 297 295 295 295 294 296 296 292 288 291 293 297 298 297 293 292 287 282 283 285 285 285 288 289 288 286 281
299 299 300 300 300 300 300 300 298 299 299 296 292 285 296 299 297 293 291 291 291 297 295 297 295 295 293 290 293 289 290 293 294 295 297 296 289 286 281 283 287 285 285 287 286 282 282
300 299 299 300 299 299 299 299 299 298 298 294 290 286 290 282 289 291 292 290 287 288 295 296 292 293 291 287 288 287 290 289 290 292 291 292 284 286 287 288 288 287 286 287 286 286 282
299 300 301 300 300 300 299 298 299 298 300 288 286 284 288 285 287 287 288 287 287 288 290 289 288 290 290 287 288 285 284 285 285 286 285 288 281 284 282 284 284 283 286 285 285 284 283
299 299 299 300 299 299 300 299 299 299 298 285 286 287 288 283 281 281 282 285 286 286 289 290 287 286 286 287 285 285 285 286 286 283 281 282 281 278 275 280 279 275 280 282 284 287 283
301 301 301 300 300 299 299 300 299 300 298 289 286 286 283 278 280 279 281 281 280 281 281 285 285 283 286 288 287 286 284 284 284 284 285 280 278 276 273 274 266 277 282 284 281 278 279
300 300 301 301 301 300 300 300 299 300 300 290 290 288 283 274 280 279 280 279 279 279 280 280 283 286 285 281 277 272 268 269 275 279 280 283 279 272 264 263 273 277 277 275 275 274 279
299 299 299 300 300 301 301 301 301 300 300 293 290 291 287 276 276 281 278 279 275 272 275 279 282 281 282 276 268 260 260 265 265 272 278 278 280 275 262 265 263 273 275 280 279 272 278
299 299 298 298 299 300 300 300 301 301 300 296 292 293 288 281 282 281 277 278 281 277 271 270 273 275 279 271 256 258 261 273 264 263 264 261 260 261 257 259 265 272 275 277 263 267 276
299 299 299 298 298 298 298 299 300 301 300 297 292 294 289 283 283 283 283 280 279 276 270 271 273 270 271 267 261 270 264 271 268 271 270 266 259 257 256 255 260 276 275 269 272 277 278
299 298 298 298 298 298 298 298 299 300 300 299 289 293 294 286 283 285 287 287 285 283 279 272 276 268 275 268 264 264 260 261 263 258 273 263 268 263 266 266 276 277 276 279 279 278 278

GFSGBSN_sfc_thetae_012.txt.gz
Theta_e
325 323 322 321 322 322 322 322 322 321 321 320 320 320 319 319 320 320 321 320 321 320 320 320 320 321 307 294 298 312 329 329 312 306 303 300 298 296 293 294 294 293 295 297 298 297 297
325 325 324 322 323 323 323 322 322 322 321 321 320 320 320 320 320 320 320 321 321 320 320 319 320 320 299 291 301 315 315 310 307 304 301 300 298 299 295 294 294 293 294 295 295 296 296
326 326 325 325 325 324 323 323 323 323 322 321 320 320 319 320 321 321 321 321 321 321 320 320 319 315 299 297 304 309 309 305 304 303 299 299 299 297 295 292 294 294 292 292 292 292 293
327 326 326 326 325 324 323 323 323 323 322 321 320 319 319 320 320 320 320 321 321 320 320 320 319 307 293 303 304 304 304 301 301 301 300 301 301 298 294 294 292 288 288 285 289 291 291
327 327 326 325 325 324 323 323 322 322 321 320 319 319 319 320 319 319 320 320 318 321 320 319 308 298 293 308 301 302 302 300 301 300 299 304 299 294 292 288 286 284 282 283 287 292 291
327 327 326 326 325 325 324 323 323 322 321 320 319 319 319 319 319 319 319 317 316 316 317 317 309 294 296 295 301 301 300 301 298 298 297 296 293 290 287 286 281 283 281 283 283 289 287
327 327 326 326 326 325 324 323 323 322 321 320 319 319 319 319 320 320 310 301 296 294 299 296 296 293 294 300 302 299 301 301 298 294 290 291 287 286 290 289 288 283 283 283 285 290 286
327 327 326 326 326 325 325 324 324 324 323 322 320 320 319 319 319 316 303 298 297 297 292 297 297 298 300 300 295 298 300 296 294 289 289 288 285 291 289 288 287 286 285 286 289 291 286
327 326 326 326 326 325 325 324 324 324 323 322 320 319 319 318 317 307 300 298 303 302 290 294 296 295 296 299 295 295 298 294 290 288 288 288 289 292 289 287 287 285 283 286 285 286 286
326 325 325 325 324 323 322 322 321 321 320 320 320 319 318 317 310 304 300 303 304 299 288 290 290 293 295 295 290 294 295 293 290 289 288 287 290 290 287 286 288 285 288 288 286 283 279
322 321 320 319 318 318 317 317 317 318 318 318 319 319 318 315 306 304 304 304 302 294 282 292 290 297 295 290 289 290 292 291 287 287 286 286 286 286 285 288 288 287 287 286 283 281 280
319 318 317 316 316 316 315 315 315 315 315 315 317 318 317 312 307 308 305 304 298 290 283 290 290 289 289 290 289 289 290 291 289 286 286 287 287 288 288 288 289 288 285 283 281 280 276
316 315 314 314 313 313 312 312 312 312 312 312 312 315 314 312 308 307 305 304 293 286 294 289 286 288 286 286 287 287 286 285 284 281 280 282 285 286 288 285 285 285 282 276 274 273 276
313 312 311 310 310 310 309 309 309 309 309 310 310 313 314 313 309 309 309 300 285 290 291 293 291 289 288 288 289 287 284 283 285 283 280 280 284 285 287 287 285 283 283 278 273 273 281
310 308 307 307 307 306 306 306 306 306 307 307 310 310 312 313 312 311 304 291 290 289 294 293 295 290 288 288 290 285 283 283 287 287 286 281 282 284 286 286 287 282 281 285 281 277 275
307 305 304 304 304 303 303 304 305 305 305 306 301 305 306 313 311 308 298 292 294 297 296 296 291 293 286 287 286 285 285 286 287 288 289 287 284 288 287 286 285 285 286 280 279 275 272
304 304 303 303 302 301 301 301 301 302 302 305 302 297 303 309 310 300 290 292 295 299 299 296 294 293 293 291 292 292 292 292 289 288 289 291 287 285 287 283 285 284 283 282 283 282 278
301 301 301 300 299 300 299 299 300 300 302 303 299 289 305 310 295 296 291 294 297 296 298 296 297 295 292 293 291 290 290 294 297 293 290 293 289 284 286 289 288 286 288 286 281 279 279
300 300 299 299 299 300 299 298 299 299 300 296 292 291 305 306 287 289 293 294 296 295 295 295 293 295 295 292 288 291 291 296 296 295 293 293 287 282 283 283 286 285 288 289 288 287 282
300 299 299 300 299 299 299 300 298 298 299 296 291 282 294 297 295 291 289 289 289 295 295 295 294 295 292 290 292 289 290 293 293 293 295 294 286 284 280 283 286 285 287 288 286 281 282
300 299 299 299 300 299 299 298 299 298 298 291 286 283 287 285 285 289 290 289 286 286 291 294 291 290 289 287 288 288 290 290 289 291 290 290 284 286 287 288 285 283 282 283 281 283 280
299 300 300 300 300 299 300 298 298 299 299 287 282 283 285 284 285 285 284 285 285 286 288 287 286 288 288 286 286 284 286 285 284 285 285 287 279 281 278 281 281 279 282 282 282 281 281
300 300 300 299 300 299 299 300 299 300 296 283 284 286 286 281 281 280 279 282 283 283 286 286 284 284 283 285 285 285 285 284 284 281 281 282 280 276 273 278 276 272 277 279 280 282 279
301 300 300 300 300 301 300 299 300 299 298 287 285 284 278 275 279 279 281 281 280 280 279 281 282 281 286 288 286 284 283 283 282 282 284 280 278 277 273 272 266 276 280 278 278 278 278
300 301 301 301 301 301 301 300 300 300 300 292 288 285 279 272 279 279 279 279 279 278 279 279 280 283 285 281 275 266 267 270 276 278 279 282 278 268 265 261 270 275 274 273 272 273 277
300 300 300 299 300 300 301 301 301 301 300 292 290 291 287 276 276 281 278 278 274 272 273 278 281 280 281 276 267 260 260 264 265 270 277 277 279 275 263 265 257 271 273 276 277 268 272
300 300 300 299 299 299 299 300 301 301 301 296 292 293 288 281 281 281 277 277 280 277 270 270 272 274 278 271 256 259 261 272 263 262 264 260 258 266 263 260 263 271 275 276 262 265 270
299 300 299 299 300 299 298 299 300 300 300 298 293 294 289 284 284 283 283 279 279 276 270 270 271 270 270 264 260 268 262 270 267 270 269 266 260 256 254 256 258 275 274 268 272 276 276
299 299 298 298 299 299 299 299 299 298 299 299 291 295 294 287 284 285 286 287 286 283 278 270 274 267 274 267 264 265 261 260 263 260 273 264 268 262 265 264 275 277 276 279 278 275 276